Miscellaneous Local Product
Issued by NWS Hastings, NE

Home | Current Version | Previous Version | Text Only | Print | Product List | Glossary Off
Versions: 1 2 3 4 5 6 7 8 9 10 11 12 13 14 15 16 17 18 19 20 21 22 23 24 25 26 27 28 29 30 31 32 33 34 35 36 37 38 39 40 41 42 43 44 45 46 47 48 49 50

000
AXUS43 KGID 241902
MISGRI

GID CWA HOURLY WEATHER ROUNDUP
NATIONAL WEATHER SERVICE HASTINGS NE
100 PM CST FRI FEB 24 2017

NOTE: "FAIR" INDICATES FEW OR NO CLOUDS BELOW 12,000 FEET WITH NO
SIGNIFICANT WEATHER AND/OR OBSTRUCTIONS TO VISIBILITY.

...SOUTH CENTRAL NEBRASKA...

CITY           SKY/WX    TMP DP  RH WIND       PRES   REMARKS
GRAND ISLAND   CLOUDY    22  16  78 N26       29.96R WCI   5
HASTINGS       CLOUDY    23  16  74 N26G36    29.96R WCI   6
KEARNEY        CLOUDY    23  12  63 N21       29.97S WCI   8
ORD            CLOUDY    23  13  65 N28G33    29.97F WCI   6
YORK           HVY SNOW  23  19  86 N21G28    29.91R WCI   8
AURORA         LGT SNOW  23  19  86 N20G26    29.94R WCI   8
LEXINGTON      CLOUDY    24  15  68 N25G32    29.99S WCI   7
HOLDREGE       CLOUDY    23  16  75 N17G28    29.97S WCI   9
HEBRON         LGT SNOW  25  21  86 N21G32    29.91R WCI  10

...NEBRASKA PANHANDLE...

CITY           SKY/WX    TMP DP  RH WIND       PRES   REMARKS
CHADRON        CLOUDY    22  16  78 N5        30.08S WCI  16
ALLIANCE       CLOUDY    21  15  78 NE12      30.01F WCI   9
SCOTTSBLUFF    LGT SNOW  23  16  74 SE3       30.04S
SIDNEY         CLOUDY    23  17  78 NE10      30.00S WCI  12

...WESTERN AND NORTH CENTRAL NEBRASKA...

CITY           SKY/WX    TMP DP  RH WIND       PRES   REMARKS
VALENTINE      CLOUDY    21  12  68 NW15      30.06S WCI   8
AINSWORTH      CLOUDY    21  16  82 N21       30.03F WCI   5
ONEILL         MOSUNNY   24  16  74 N22       30.00S WCI   8
BROKEN BOW     CLOUDY    21  14  74 N25G33    29.99R WCI   4
IMPERIAL       CLOUDY    25  18  74 N20       30.02S WCI  11
NORTH PLATTE   CLOUDY    23  12  62 N16G25    30.03S WCI  10
MCCOOK         CLOUDY    28  19  69 N26       29.99S WCI  13

...EASTERN NEBRASKA...

CITY           SKY/WX    TMP DP  RH WIND       PRES   REMARKS
NORFOLK        CLOUDY    22  14  71 N20G33    29.91F WCI   7
SO SIOUX CITY  HAZE      25  20  81 N22       29.88S VSB 3/4 WCI  10
TEKAMAH        CLOUDY    25  20  81 N24       29.85S HAZE    WCI   9
COLUMBUS       CLOUDY    21  16  79 NW22G31   29.92R VSB 1   WCI   5
ALBION         CLOUDY    24  13  65 N23G31    29.94S HAZE    WCI   8
OMAHA EPPLEY   LGT SNOW  25  20  81 N29G38    29.81S VSB 3/4 WCI   8
OFFUTT AFB     LGT SNOW  25  21  86 N9G18     29.82R WCI  15
MILLARD        SNOW      27  23  85 N15G26    29.84R VSB 1/2 WCI  15
LINCOLN        LGT SNOW  26  22  84 N24G32    29.88R VSB 1   WCI  11
NEBRASKA CITY  LGT SNOW  27  24  87 N15       29.81R WCI  15
BEATRICE       LGT SNOW  27  24  89 N20G28    29.87R WCI  14
FALLS CITY     FLURRIES  29  25  85 N16       29.80R WCI  17

...NORTHERN KANSAS...

CITY           SKY/WX    TMP DP  RH WIND       PRES   REMARKS
GOODLAND       LGT SNOW  28  22  78 N18       29.97S WCI  15
HILL CITY      CLOUDY    33  24  69 N20G33    29.98R WCI  21
NORTON         CLOUDY    28  18  64 NW20      29.97S WCI  15
PHILLIPSBURG   PTSUNNY   30  21  69 NW21G28   29.98S WCI  17
SMITH CENTER   CLOUDY    25  19  80 N29G36    29.96F HAZE    WCI   8
HAYS           FLURRIES  31  24  75 N21       29.96S WCI  18
RUSSELL        FLURRIES  31  22  69 N24G32    29.94S WCI  17
CONCORDIA      LGT SNOW  25  22  88 NW18G30   29.92S VSB 1   WCI  11
SALINA         CLOUDY    33  20  58 N23G30    29.92S WCI  21
TOPEKA         MIX PCPN  34  32  92 NW18      29.81R FOG     WCI  23



USA.gov is the U.S. government's official web portal to all federal, state and local government web resources and services.